Temp
0 -1 -1 -2 -3 -3 -2 -1 1 4 9 10 11 11 12 11 11 11 11 11 11 11 11 11 11 11 12 12 12 10 10 9 8 10 8 8 9 9 10 10 10 10 12
0 -1 -2 -3 -4 -4 -4 -3 -2 1 4 8 10 10 11 11 11 10 10 10 10 11 10 10 11 11 11 11 10 11 9 9 10 10 11 12 10 9 9 9 8 9 10
-1 -2 -3 -3 -4 -5 -5 -4 -3 -2 0 3 7 8 9 9 9 9 9 11 11 11 11 10 10 10 10 11 10 11 11 9 8 10 12 12 14 13 9 8 8 8 8
-2 -3 -3 -4 -5 -5 -6 -5 -5 -4 -2 -0 3 5 9 11 11 10 10 9 10 10 10 10 10 9 10 10 11 10 10 11 11 9 10 9 11 13 11 9 8 7 8
-2 -3 -4 -5 -5 -6 -6 -6 -5 -5 -4 -3 -2 -1 2 7 8 8 8 9 8 9 9 9 9 9 9 9 10 9 9 10 11 10 10 9 9 10 13 13 10 8 8
-2 -3 -5 -5 -6 -6 -7 -7 -6 -6 -6 -5 -4 -3 -3 -1 4 6 7 8 8 7 8 8 8 8 8 8 8 9 9 9 10 11 10 10 11 11 12 13 12 11 9
-2 -3 -4 -4 -5 -6 -7 -7 -7 -7 -7 -6 -6 -5 -4 -4 -3 -2 1 3 6 7 7 6 7 7 7 8 7 8 8 8 8 9 10 10 11 10 11 12 11 12 9
-3 -4 -5 -5 -6 -6 -6 -7 -8 -8 -8 -8 -7 -6 -6 -6 -5 -5 -3 -2 -0 1 4 5 6 6 6 6 6 7 7 8 7 8 9 9 9 9 10 11 11 11 10
-4 -5 -6 -6 -6 -7 -7 -7 -7 -7 -8 -8 -8 -8 -7 -6 -6 -5 -4 -4 -3 -2 -0 2 4 5 5 5 6 6 7 7 7 7 7 7 8 8 8 8 9 11 12
-4 -5 -6 -7 -7 -7 -8 -8 -8 -8 -8 -8 -9 -9 -9 -8 -7 -6 -6 -5 -4 -3 -2 -1 1 3 4 5 5 5 6 6 6 7 7 6 6 7 7 7 8 8 10
-5 -6 -7 -7 -8 -8 -8 -9 -9 -9 -9 -9 -8 -8 -9 -9 -8 -8 -7 -7 -5 -5 -4 -3 -2 -1 1 3 4 5 5 5 6 6 6 6 6 6 6 6 6 7 7
-6 -7 -8 -8 -9 -9 -10 -10 -10 -10 -10 -10 -9 -9 -9 -9 -9 -9 -9 -8 -7 -6 -6 -5 -4 -3 -2 -0 1 3 3 4 5 5 5 5 5 5 5 6 5 6 6
-8 -9 -10 -10 -11 -11 -11 -12 -12 -12 -11 -11 -10 -10 -10 -10 -10 -10 -10 -10 -9 -8 -7 -6 -5 -4 -3 -2 -1 -1 1 2 3 4 4 4 4 4 4 4 5 5 5
-10 -10 -11 -12 -12 -13 -13 -13 -13 -13 -13 -12 -12 -11 -11 -11 -11 -11 -11 -11 -10 -9 -9 -8 -7 -6 -4 -4 -3 -2 -1 -1 -0 1 1 2 3 3 3 3 3 3 3
-11 -11 -12 -13 -13 -14 -14 -14 -14 -14 -13 -13 -13 -12 -12 -12 -12 -12 -11 -11 -11 -11 -10 -9 -8 -7 -6 -5 -4 -3 -3 -2 -2 -1 -1 -0 -0 0 1 2 2 2 3
-12 -12 -13 -13 -14 -14 -14 -14 -14 -14 -14 -14 -13 -13 -13 -13 -13 -13 -12 -12 -12 -11 -11 -10 -9 -9 -8 -7 -6 -4 -5 -4 -3 -2 -2 -2 -1 -1 -1 -1 0 -0 1
-13 -13 -14 -14 -15 -15 -15 -15 -15 -15 -15 -15 -14 -14 -14 -14 -13 -13 -13 -12 -12 -12 -12 -11 -11 -10 -9 -9 -7 -6 -6 -5 -5 -4 -3 -3 -2 -2 -2 -2 -1 -1 -1
-14 -14 -15 -15 -15 -16 -15 -15 -15 -15 -15 -15 -15 -14 -15 -14 -14 -14 -13 -13 -12 -12 -12 -12 -11 -11 -11 -10 -9 -8 -7 -7 -6 -6 -5 -4 -3 -3 -3 -3 -2 -2 -2
-15 -16 -16 -16 -16 -16 -16 -16 -16 -16 -16 -15 -15 -15 -15 -14 -14 -14 -14 -13 -13 -12 -12 -11 -11 -11 -11 -10 -9 -9 -8 -7 -7 -7 -6 -6 -5 -4 -4 -3 -3 -3 -3
-16 -16 -16 -15 -16 -16 -16 -16 -16 -15 -15 -15 -15 -15 -15 -15 -15 -15 -14 -14 -13 -13 -12 -12 -12 -12 -12 -11 -10 -9 -8 -7 -7 -7 -7 -7 -6 -5 -4 -4 -3 -3 -3
-15 -15 -16 -16 -16 -16 -16 -16 -15 -15 -15 -16 -16 -16 -16 -15 -15 -15 -14 -14 -14 -13 -13 -13 -13 -12 -12 -11 -11 -10 -9 -8 -6 -6 -6 -6 -6 -6 -5 -5 -4 -4 -4
-16 -16 -16 -16 -16 -16 -16 -16 -16 -16 -16 -17 -17 -16 -16 -16 -16 -16 -15 -15 -14 -14 -14 -14 -13 -13 -12 -12 -11 -10 -9 -8 -7 -7 -6 -6 -6 -6 -5 -5 -5 -5 -4
-16 -16 -16 -16 -16 -16 -16 -16 -17 -17 -17 -17 -17 -17 -17 -17 -17 -16 -15 -16 -15 -15 -15 -14 -14 -13 -12 -12 -11 -11 -10 -10 -9 -8 -7 -7 -6 -6 -6 -5 -5 -4 -5
-16 -16 -16 -16 -16 -16 -17 -17 -17 -18 -18 -18 -18 -18 -18 -17 -17 -17 -16 -16 -16 -16 -15 -15 -14 -13 -12 -12 -11 -11 -11 -10 -10 -9 -9 -8 -8 -7 -6 -6 -6 -5 -5
-17 -17 -16 -17 -17 -17 -17 -18 -18 -18 -18 -18 -18 -18 -18 -18 -17 -17 -17 -17 -16 -16 -15 -15 -14 -13 -13 -12 -11 -11 -10 -10 -9 -9 -9 -9 -8 -8 -7 -7 -7 -7 -6
-16 -17 -17 -17 -17 -18 -18 -18 -18 -18 -19 -19 -18 -18 -18 -18 -17 -17 -17 -17 -16 -16 -15 -15 -14 -14 -13 -12 -12 -11 -11 -10 -9 -9 -9 -8 -8 -8 -8 -7 -7 -7 -7
Height
860 855 849 843 836 828 822 818 813 809 811 811 811 811 811 812 813 814 815 817 818 819 820 822 823 825 827 828 829 831 834 835 837 838 842 842 841 841 841 842 843 843 843
861 858 853 847 842 837 831 824 819 814 810 810 811 811 811 811 812 813 814 815 816 817 819 820 821 823 825 826 827 829 831 833 835 838 840 841 842 840 840 841 842 842 842
869 865 860 856 850 843 838 833 827 821 816 811 811 811 810 810 811 811 812 813 814 815 816 818 819 821 822 824 825 826 828 830 833 835 836 838 832 834 838 839 841 840 841
875 872 867 862 858 853 846 839 833 826 820 816 812 811 811 810 811 811 811 811 812 813 814 815 816 818 820 822 823 824 825 827 829 832 833 834 834 831 833 837 838 838 839
880 877 875 871 866 859 852 847 840 833 826 822 819 817 814 814 813 812 811 811 811 812 813 814 815 816 817 819 820 821 822 823 825 827 830 833 834 833 830 828 834 836 836
884 883 880 876 871 865 857 851 845 840 834 828 824 821 819 817 815 814 813 812 812 811 811 811 812 813 815 816 817 819 819 821 822 824 826 827 828 828 827 826 827 829 833
886 884 880 876 872 867 862 857 852 846 841 836 831 827 823 821 820 818 816 814 813 812 811 810 810 811 811 812 814 815 816 817 818 820 822 823 824 825 824 825 826 827 830
890 888 886 882 878 874 869 864 859 853 848 843 838 834 830 826 824 822 818 816 815 812 812 810 808 809 809 809 810 811 812 813 814 815 817 819 821 822 822 823 825 826 827
894 892 889 886 883 879 874 870 865 860 854 850 844 839 835 831 827 824 821 817 815 811 809 807 807 806 806 806 807 807 807 808 809 810 812 813 815 817 818 820 821 822 820
896 895 892 889 886 882 879 874 870 865 860 855 850 845 840 836 832 827 823 819 816 812 809 805 803 803 803 802 803 803 802 802 802 804 805 806 808 810 812 814 816 818 818
898 897 895 892 889 885 881 877 872 868 863 858 854 849 844 840 835 830 827 823 819 815 811 806 803 800 798 798 799 798 798 797 798 798 798 799 802 803 805 807 809 811 813
902 900 897 894 891 887 884 880 875 871 867 862 857 853 848 844 839 835 830 825 821 818 814 809 804 800 798 795 794 795 793 792 792 793 793 794 795 797 799 801 802 803 806
906 904 900 897 893 889 885 882 877 873 868 864 859 855 851 846 843 839 834 829 824 819 815 811 806 802 799 795 793 791 791 789 788 788 789 789 790 791 792 794 796 798 800
909 906 902 899 895 891 887 882 878 873 869 864 860 857 853 848 844 840 836 831 826 822 817 812 809 805 801 797 794 791 790 787 785 785 785 786 786 787 788 789 790 792 795
909 906 903 899 895 891 886 882 877 873 868 864 860 857 853 849 844 839 835 831 827 823 819 814 809 805 802 798 796 792 790 787 783 781 782 783 783 784 785 786 786 787 789
910 907 904 900 895 891 887 882 877 872 868 863 859 855 852 847 843 839 834 830 827 823 820 815 809 805 801 799 797 794 790 787 783 780 779 779 779 780 781 783 783 785 785
909 905 902 898 894 890 886 881 876 871 867 862 858 854 850 845 841 837 833 830 826 821 818 814 810 806 801 797 796 794 789 788 782 779 778 777 777 776 777 777 779 779 781
906 902 898 894 891 887 883 878 874 869 865 860 856 853 849 844 840 836 832 828 824 820 816 812 809 806 802 797 793 793 790 788 780 779 777 776 775 774 774 773 774 774 775
905 901 896 892 887 883 879 875 871 867 863 859 855 852 848 843 839 835 830 826 822 818 814 810 806 803 799 796 794 793 789 784 779 778 776 774 773 773 772 771 769 769 769
901 897 892 889 885 880 877 873 869 865 861 858 854 850 846 842 837 833 829 825 820 816 811 807 804 800 797 792 791 790 784 782 779 774 774 771 770 769 770 769 768 766 765
897 893 890 886 882 879 875 871 867 863 860 856 852 848 844 839 835 830 826 822 817 813 809 805 800 796 793 789 787 784 783 777 776 773 770 768 766 765 766 765 766 765 765
893 891 886 883 879 876 872 868 864 860 856 852 848 844 840 836 832 827 822 818 814 810 805 801 796 792 788 785 782 779 777 776 772 770 766 763 762 762 762 761 762 762 762
891 887 884 879 876 872 869 864 860 856 852 848 844 840 836 832 828 824 819 815 811 807 802 798 793 789 785 782 778 775 773 770 767 766 762 760 758 757 756 755 757 757 758
887 884 880 875 871 868 865 861 856 852 848 844 840 836 832 827 823 820 816 812 808 804 800 795 790 785 781 777 774 771 768 765 762 759 757 755 754 754 753 752 752 751 752
884 881 876 872 867 864 860 856 852 848 844 839 835 831 827 823 819 815 812 808 804 800 795 789 785 779 775 772 769 766 763 759 756 754 752 750 748 747 747 746 748 747 746
879 875 871 867 862 858 854 850 847 843 839 834 830 827 823 819 814 809 805 802 797 792 787 782 778 774 769 765 761 758 754 751 749 746 743 741 739 740 740 741 742 742 742
Wind_Speed
24 29 32 33 35 39 40 38 33 27 10 8 10 11 12 11 10 10 11 10 9 10 9 8 8 9 11 12 15 12 12 9 11 10 3 2 4 6 7 7 5 5 7
21 30 33 36 36 35 38 40 38 31 26 11 9 9 8 10 10 10 12 12 11 12 11 10 10 11 11 13 16 19 13 9 15 6 5 3 7 10 11 9 7 8 9
20 25 31 33 35 37 36 36 36 36 30 22 10 8 7 8 7 10 10 14 14 14 14 13 11 11 13 15 16 21 21 11 17 14 8 4 5 7 8 11 9 8 7
18 25 29 32 34 34 33 35 36 37 35 30 22 16 9 10 7 7 8 10 13 13 14 15 14 12 12 14 16 17 23 17 16 16 19 5 2 4 3 10 11 9 9
17 21 27 28 29 32 33 33 34 39 38 34 31 25 21 12 9 7 6 7 9 12 12 14 13 14 13 14 16 17 18 20 17 19 18 16 9 8 4 3 9 11 11
16 21 23 24 28 31 34 34 35 36 39 38 34 32 30 24 18 14 10 7 6 8 12 13 13 13 13 14 15 17 18 19 20 19 19 19 11 11 7 3 6 9 11
16 21 25 27 29 31 33 32 34 35 36 37 37 35 31 28 24 23 17 14 10 8 7 10 12 13 15 16 15 16 17 20 20 20 21 20 18 10 9 6 3 3 6
15 19 22 23 25 27 28 29 30 32 34 34 33 34 34 30 28 26 23 19 16 13 12 10 11 13 14 15 16 16 18 20 23 22 22 21 20 15 11 9 8 3 7
14 18 21 22 23 25 26 26 27 27 29 28 31 32 32 31 29 28 26 24 19 18 16 12 12 12 13 15 15 16 18 19 21 22 25 22 20 18 16 13 13 13 8
13 17 19 21 22 22 23 24 25 25 25 25 27 28 30 29 28 27 28 28 26 24 19 14 12 11 13 14 15 16 17 19 20 20 22 22 27 20 17 17 17 17 17
13 16 18 19 20 21 23 23 24 25 25 25 24 24 27 28 28 27 27 28 26 27 26 22 17 14 12 13 16 17 17 18 19 19 20 22 21 21 19 18 18 19 18
13 18 19 20 20 21 22 23 23 23 23 22 22 22 22 24 25 27 27 27 26 25 25 24 22 19 15 10 12 16 16 18 18 19 18 19 18 19 19 18 19 20 20
12 16 18 19 21 21 22 22 22 23 22 23 21 21 21 22 23 23 24 25 25 25 25 23 23 22 18 17 11 11 12 15 15 16 17 17 17 17 17 18 18 18 17
11 14 16 18 19 20 20 21 22 24 22 22 20 20 21 21 21 21 23 25 26 25 24 23 21 19 17 22 23 14 11 9 7 8 11 13 15 16 16 17 17 16 16
12 12 16 19 19 20 21 22 22 25 24 23 22 19 20 21 24 22 22 22 23 24 24 23 21 20 18 17 25 20 13 11 10 11 12 9 7 12 12 13 14 15 16
13 13 17 18 19 19 20 21 22 25 23 24 23 19 21 24 22 22 22 20 22 20 20 23 22 21 20 19 22 21 16 14 11 11 11 11 11 14 14 14 14 13 17
14 14 17 17 19 19 20 20 21 21 21 22 21 19 22 24 21 22 21 21 20 19 19 19 19 19 21 19 21 20 17 15 13 12 11 13 13 13 15 16 15 17 21
16 19 19 20 19 21 23 23 23 21 22 20 19 19 23 22 22 22 21 21 19 19 19 18 17 18 19 18 18 21 17 16 14 13 12 11 12 13 13 15 17 20 21
18 18 19 21 22 24 23 20 20 21 18 18 19 22 22 22 23 23 23 22 21 21 20 19 18 18 18 19 20 18 17 15 15 16 14 13 13 13 12 14 15 15 17
19 20 21 20 21 22 20 21 21 20 19 20 22 22 21 23 23 23 22 22 22 22 21 20 19 19 22 21 20 19 17 17 16 13 15 14 14 13 13 14 12 13 14
20 21 19 18 19 19 20 21 20 19 21 22 22 22 22 23 23 23 22 23 22 22 21 23 22 22 21 20 20 19 19 17 18 16 14 13 13 14 16 16 16 13 11
21 19 19 19 20 19 20 20 20 21 23 22 23 23 23 22 23 23 24 22 22 23 23 22 22 20 19 20 19 18 18 19 20 20 16 16 15 16 17 18 18 18 16
20 20 19 21 20 21 19 22 23 23 23 23 23 23 23 22 22 23 23 24 22 21 21 21 21 21 19 18 18 20 19 19 20 20 19 19 17 17 18 21 22 20 17
20 20 21 21 24 21 21 22 23 22 23 23 23 22 22 23 22 22 22 22 22 21 22 23 23 23 23 22 20 19 19 18 18 18 19 19 19 22 22 16 11 18 17
20 19 21 23 23 23 23 22 22 22 23 23 23 23 21 22 22 21 21 22 23 24 26 26 26 25 24 23 23 24 23 22 21 21 20 19 18 18 18 19 18 14 14
21 22 22 23 24 24 24 24 23 22 22 24 23 22 23 22 22 22 22 21 24 26 26 27 28 28 29 30 30 29 28 28 27 26 22 19 17 18 17 17 16 16 19
Wind_Direction
17 18 17 16 14 15 15 16 15 12 330 276 251 240 234 230 228 226 228 223 223 222 218 218 213 208 208 206 206 184 172 158 176 157 158 212 224 226 232 236 236 226 210
19 16 15 15 15 13 13 14 15 18 18 333 276 257 237 236 231 228 227 226 225 226 222 223 221 216 212 209 207 203 182 194 188 167 169 223 237 246 237 233 232 226 217
16 14 15 15 13 12 10 11 14 20 22 19 344 287 265 255 242 237 231 233 232 232 233 232 227 224 217 217 212 210 207 188 195 197 202 202 233 186 215 221 224 222 215
19 17 14 14 13 10 10 13 16 21 26 28 25 2 301 286 280 264 248 242 238 238 239 237 234 227 225 224 221 216 219 212 199 204 216 246 284 218 184 217 219 216 213
20 16 13 11 11 12 11 12 15 22 26 30 30 26 16 344 327 319 287 248 248 243 245 244 241 236 231 230 226 222 216 215 219 212 207 228 240 242 257 185 198 217 216
19 17 14 12 11 11 12 13 14 17 21 26 28 28 21 13 8 354 339 314 277 258 251 248 246 245 242 238 233 228 224 222 222 219 212 213 210 212 209 207 189 209 210
16 13 12 11 11 11 11 11 12 13 15 21 22 25 25 22 16 9 357 346 331 306 280 263 255 251 248 244 238 233 231 226 221 221 221 224 227 228 215 227 175 187 192
15 15 13 11 10 10 10 10 11 11 12 14 18 21 25 24 21 14 8 4 351 330 317 292 266 257 253 248 242 237 233 231 229 226 227 228 229 228 220 229 217 212 215
14 10 9 10 8 9 9 9 9 9 11 12 14 17 20 21 20 19 17 11 0 349 329 310 289 266 253 250 244 239 236 232 231 232 230 228 231 233 231 227 227 237 246
13 9 8 6 6 7 6 7 9 9 7 8 10 12 14 16 17 17 15 14 9 3 353 336 306 282 266 251 244 243 241 235 232 230 230 230 231 230 231 231 234 234 241
3 3 3 3 2 3 4 4 5 5 6 6 6 5 6 8 11 12 10 9 7 6 5 0 351 321 280 264 252 244 242 239 237 233 230 231 230 230 231 230 230 233 231
359 357 356 358 360 360 360 360 359 360 359 358 1 3 4 4 4 3 2 2 1 1 2 3 2 358 344 300 267 259 247 239 238 236 234 233 228 228 228 227 226 226 227
358 355 353 353 352 352 353 353 354 354 353 353 353 354 358 360 358 358 357 357 357 355 355 358 1 3 6 357 325 281 269 255 244 239 235 234 228 227 223 222 225 224 223
354 350 349 347 345 345 345 345 346 350 348 349 348 348 349 349 348 346 348 351 354 352 351 352 351 352 360 17 1 327 296 268 261 256 245 239 232 230 226 221 219 218 216
349 345 341 339 338 338 339 340 340 344 346 344 345 342 342 340 342 341 340 342 342 343 344 345 344 342 342 354 352 349 328 303 284 261 252 243 230 229 227 225 221 214 215
340 335 334 333 333 333 334 333 333 338 339 339 337 332 337 338 335 336 336 333 333 333 332 335 337 336 333 335 343 351 339 333 317 292 275 261 249 241 239 240 231 223 212
334 331 328 326 326 328 329 328 328 329 332 331 330 328 332 334 331 331 330 327 326 325 323 325 325 322 323 331 333 335 338 323 330 324 301 280 266 259 254 247 243 242 239
328 325 324 321 323 325 332 331 330 328 327 327 327 328 330 328 327 327 326 323 321 319 317 316 317 313 312 318 325 326 320 311 310 307 309 298 278 266 258 254 252 249 244
313 311 313 315 317 324 331 327 326 325 327 328 327 326 326 323 322 321 320 319 317 314 312 309 308 309 307 312 313 312 311 303 301 296 290 287 289 274 265 258 249 250 255
317 318 319 317 317 323 328 325 323 324 324 324 322 320 320 318 317 316 314 312 310 307 307 305 303 301 301 303 302 302 301 292 289 287 287 279 267 274 273 265 268 245 243
317 318 318 315 317 319 321 318 318 318 319 318 316 316 315 315 313 312 311 309 307 304 302 302 301 299 297 298 298 298 292 286 286 281 276 274 273 271 268 265 266 257 248
319 319 316 314 316 317 317 314 313 315 315 314 312 311 311 310 309 310 309 307 306 304 301 301 301 299 298 296 297 296 289 283 281 280 281 270 269 270 267 263 263 264 256
315 316 314 312 312 313 312 310 311 314 313 312 310 310 309 308 306 304 304 305 304 303 303 302 301 300 299 297 296 295 291 286 279 275 275 274 276 278 270 259 257 259 255
313 313 312 309 310 310 308 305 308 310 310 308 308 309 308 307 307 303 300 299 298 299 300 299 297 297 297 296 295 294 293 289 282 276 272 270 270 267 267 272 257 250 249
307 306 305 304 304 306 305 306 305 306 304 304 305 306 305 307 307 304 301 297 291 289 286 284 286 290 291 290 288 285 280 275 271 267 259 255 252 252 255 252 252 251 248
304 306 303 302 303 303 301 303 303 301 299 300 301 303 304 303 301 306 303 300 299 298 293 291 291 294 291 290 290 288 285 282 282 282 278 273 252 245 247 250 249 246 243